Wind_Speed
20 19 18 17 17 17 17 17 16 16 14 14 15 15 16 15 14 12 11 11 12 11 10 12 12 12 12 12 12 12 13 12 12 13 13 12 12 11 10 11 11 10 9 9 9 9 8 7 6 6 6 6 7 7 7 7 7 6 6 7 5 5 6 5 5 7 9 9 10 11 12 11 11 11 12 12 13 13 13 14 15 15 16 17 17
21 21 18 17 18 17 17 17 16 16 15 15 15 15 16 16 16 14 12 12 13 12 11 11 12 12 13 12 12 13 14 13 12 13 13 13 12 11 10 11 12 11 11 10 10 9 8 8 7 8 8 8 8 9 8 8 7 5 6 7 5 6 7 6 5 5 8 11 11 11 12 11 11 12 12 14 14 13 14 15 15 15 15 15 16
20 21 19 17 17 17 17 17 17 16 16 15 15 15 15 14 14 14 13 12 13 12 12 11 12 13 13 12 13 13 14 14 14 13 14 13 12 12 11 12 12 12 12 11 11 10 9 9 9 8 9 9 9 9 8 8 6 4 5 6 5 6 7 7 6 5 7 10 11 11 11 12 12 13 13 13 13 13 14 14 14 15 15 15 16
17 19 19 17 17 17 17 17 17 17 16 16 16 15 15 14 14 14 13 12 12 13 12 12 14 15 13 12 14 14 13 15 15 13 13 14 14 13 12 12 13 12 12 12 11 11 11 11 10 9 9 9 8 8 8 8 6 6 6 6 5 6 7 7 8 7 7 10 11 11 12 13 14 14 13 12 13 14 14 13 13 15 14 13 14
17 17 17 17 16 16 16 16 16 17 17 16 16 16 15 15 15 15 14 13 13 13 13 13 15 17 15 13 14 15 15 15 15 14 13 14 14 13 13 13 14 13 13 12 12 11 11 11 10 9 9 9 9 8 9 8 8 8 8 7 6 7 7 7 8 9 9 11 12 12 13 14 15 14 13 13 14 14 13 14 15 16 14 12 13
16 17 16 16 15 15 15 15 16 16 16 15 16 16 16 15 15 16 16 15 14 14 14 14 15 17 18 15 14 16 17 16 16 15 14 14 14 13 13 13 13 13 12 13 12 12 12 11 11 10 10 10 10 9 9 8 8 9 9 8 7 8 9 9 10 10 11 12 13 14 14 14 14 13 12 13 15 17 18 17 17 16 14 13 13
17 18 18 18 17 15 14 14 14 15 15 15 15 15 15 16 16 16 17 16 15 15 15 16 15 16 17 16 15 16 17 16 16 16 15 15 15 14 13 12 13 13 13 13 13 12 12 12 12 12 11 12 11 10 10 9 9 9 9 9 8 8 9 10 10 10 10 11 12 13 13 14 14 14 15 16 17 18 17 17 17 15 13 13 14
16 17 18 19 18 16 16 15 14 14 14 14 14 14 14 15 16 16 17 17 17 16 16 17 16 15 16 17 16 16 17 16 16 17 16 16 15 14 13 13 12 12 13 13 13 13 13 13 13 13 13 14 13 12 10 9 9 8 8 9 9 8 8 9 10 10 10 11 13 13 15 16 16 18 18 17 16 15 14 15 15 14 15 19 21
13 13 14 15 16 16 16 14 14 14 14 13 12 12 13 13 13 15 16 19 18 17 17 17 17 18 18 18 17 16 15 16 18 17 16 16 15 13 14 14 12 11 13 13 14 14 14 13 13 13 14 15 15 14 12 11 10 9 8 8 8 8 9 9 10 11 11 12 13 14 15 16 17 18 17 14 15 15 15 14 14 16 20 24 25
10 11 11 11 12 13 11 10 11 12 12 11 10 10 10 9 9 10 12 14 16 17 18 18 18 18 17 16 16 16 14 14 17 18 17 16 15 13 13 14 13 12 13 13 13 13 13 13 14 14 14 14 14 13 15 15 14 14 14 13 12 11 11 11 11 11 12 13 14 14 14 15 15 16 16 16 16 15 16 17 19 21 21 20 22
6 8 10 9 9 9 7 6 8 8 8 7 7 9 10 9 10 10 8 8 8 10 14 16 15 16 17 16 16 15 14 14 16 18 18 17 16 13 12 13 12 13 13 13 13 13 13 13 14 14 14 13 12 12 14 15 15 16 16 16 16 15 15 15 14 14 13 13 14 14 13 14 15 16 17 17 16 16 19 21 20 19 18 15 16
10 9 9 9 8 7 6 4 5 8 9 6 2 4 6 7 8 9 8 9 9 7 8 10 12 13 15 15 14 13 14 14 15 16 18 19 18 16 14 12 11 12 13 15 15 15 14 13 13 13 12 12 12 12 14 14 13 14 14 14 14 15 17 18 19 19 17 15 15 14 15 16 17 17 16 16 17 20 21 19 17 17 17 15 15
14 12 10 10 9 9 9 8 6 7 11 11 8 7 8 9 8 7 7 9 11 10 8 7 8 10 9 10 12 12 12 13 14 16 18 20 20 18 17 14 12 13 14 15 15 14 13 13 14 15 13 11 12 12 12 12 12 13 13 13 14 15 17 18 20 22 21 20 20 21 20 18 17 18 18 18 20 20 18 17 16 16 17 18 20
10 11 10 9 9 9 10 10 6 3 8 14 15 14 14 16 14 11 10 10 13 14 12 9 10 11 9 8 9 8 6 10 16 18 20 24 24 22 19 15 13 13 14 14 14 13 13 13 14 14 14 14 14 14 13 13 13 13 13 14 16 17 18 18 19 20 22 24 25 26 25 22 21 21 20 20 19 17 15 16 17 17 19 22 24
3 5 6 6 7 9 9 9 7 5 8 11 14 15 16 17 17 16 14 14 15 15 15 14 15 14 12 10 9 6 5 10 15 17 20 25 25 22 19 15 12 12 14 14 14 14 13 12 12 11 11 12 13 13 12 13 14 14 13 13 15 16 16 17 18 19 21 23 26 27 27 24 21 20 19 16 15 14 15 18 20 21 23 23 23
9 5 5 5 4 5 5 6 7 8 10 10 10 12 12 13 17 19 18 17 15 14 14 16 17 16 14 13 12 9 7 9 12 12 13 16 18 17 14 13 11 11 12 13 13 12 10 9 11 12 11 11 11 12 12 12 13 13 12 12 13 14 15 16 17 18 18 18 20 22 23 21 20 20 18 15 15 17 19 22 23 22 20 20 20
13 9 4 2 2 2 2 4 7 8 9 8 8 10 12 14 16 17 17 15 15 14 14 15 15 14 13 13 13 12 10 8 9 10 11 13 14 12 9 8 9 9 9 10 11 10 9 9 11 12 13 13 13 12 11 11 12 11 11 12 13 14 15 15 15 15 14 13 14 15 16 16 16 17 16 15 17 20 21 22 22 20 17 16 16
16 13 9 6 6 5 5 2 3 3 3 5 6 8 11 12 12 13 13 13 14 15 15 16 16 14 11 9 9 9 10 9 9 11 13 13 13 11 9 7 7 9 10 11 13 13 13 12 12 12 13 14 15 13 11 11 11 11 10 11 13 14 13 12 10 11 12 13 14 14 14 14 15 16 18 19 21 22 21 20 19 17 16 16 16
15 14 11 10 9 8 6 6 5 5 4 2 2 2 3 3 6 9 10 11 13 13 14 15 16 15 13 10 8 8 10 12 10 10 11 12 11 10 10 9 9 10 11 12 13 14 14 13 12 11 10 12 12 11 10 11 11 9 9 10 12 13 12 11 12 13 15 15 15 15 16 17 18 19 20 20 19 18 17 16 15 13 14 15 17
14 13 12 12 12 10 9 7 7 6 5 4 4 3 3 2 2 4 5 6 6 8 9 11 14 16 17 15 12 11 12 13 10 8 8 10 10 8 8 9 8 8 7 7 9 11 11 10 10 9 8 9 8 8 8 9 8 8 9 10 12 13 15 17 17 18 18 17 16 16 16 16 16 16 15 16 16 15 14 14 13 11 12 15 17
13 12 12 11 11 11 10 9 8 7 6 5 4 3 3 3 3 2 2 3 3 4 3 2 1 4 11 16 16 12 10 10 8 5 3 4 6 6 6 6 5 5 5 6 7 7 6 7 9 9 8 8 8 8 8 8 9 10 11 11 13 14 16 18 18 18 17 17 16 15 14 14 15 15 14 16 17 15 14 15 15 13 13 16 18
11 11 11 11 10 9 8 8 9 9 8 7 6 6 5 4 3 3 3 4 5 6 7 8 10 10 11 14 15 12 8 6 6 3 2 2 3 4 3 3 2 2 2 3 4 4 5 6 8 9 8 8 8 9 8 9 10 11 11 12 12 13 13 14 15 15 15 14 14 14 14 14 15 15 15 16 17 15 14 16 16 15 15 16 17
10 10 10 11 11 10 8 8 10 11 10 9 10 11 11 11 9 7 6 7 7 7 7 9 11 13 13 13 14 13 11 9 9 8 7 6 6 4 3 2 1 2 2 3 3 4 6 6 6 8 9 9 10 10 10 11 11 12 12 12 11 11 12 13 13 13 12 12 12 13 14 14 13 13 15 16 16 15 15 16 16 16 16 16 17
8 8 7 8 9 9 7 8 9 10 10 9 9 10 11 12 11 10 9 8 8 8 9 10 12 13 15 16 16 16 17 16 14 13 13 12 11 9 7 5 3 4 4 3 3 3 5 6 7 8 9 9 9 10 9 9 10 10 10 9 8 9 10 10 10 10 10 11 12 12 12 11 10 12 15 16 15 15 16 16 16 16 15 15 17
8 7 6 7 8 7 7 8 9 9 8 6 7 8 9 10 9 9 10 9 8 9 10 10 12 13 14 15 14 14 16 16 13 13 14 12 11 11 10 8 6 5 5 3 2 3 4 6 7 7 6 5 5 4 4 5 6 6 6 6 7 9 9 9 9 9 9 9 9 10 10 11 12 14 15 16 15 15 15 15 16 17 17 18 20
8 8 7 7 7 7 7 8 9 9 9 7 7 8 7 8 8 9 10 10 9 8 8 10 13 13 13 12 11 11 13 13 11 11 11 10 9 9 9 8 6 6 6 4 4 5 7 8 7 5 3 3 3 3 3 3 4 5 7 8 9 8 7 7 7 7 8 9 10 11 12 13 14 15 16 16 15 13 14 16 18 20 21 21 22
8 9 9 9 8 6 6 6 7 8 10 10 11 11 10 9 10 12 13 13 12 10 6 6 9 9 9 10 11 13 13 11 9 9 9 8 7 6 7 6 5 5 4 4 6 8 10 10 7 3 0 2 3 4 5 4 4 6 8 9 8 6 6 5 5 8 11 11 11 12 13 13 13 14 15 15 14 13 14 16 17 20 22 22 21
8 8 7 7 7 6 5 6 5 7 7 8 10 12 14 13 13 13 13 13 15 15 12 10 11 11 9 10 13 13 11 10 9 8 7 7 6 5 5 5 5 5 5 6 7 8 10 10 8 6 5 2 2 3 4 2 1 4 5 6 7 7 6 7 10 12 14 14 13 13 13 12 12 14 14 13 12 12 13 14 15 18 19 19 18
5 6 7 7 7 6 4 6 8 6 8 9 7 8 10 11 11 11 11 11 11 12 12 12 14 14 12 11 11 10 8 8 7 6 6 6 6 5 5 5 5 5 6 7 7 7 8 8 10 10 9 7 6 4 2 0 2 3 6 7 8 8 8 9 12 15 16 16 15 14 14 14 14 15 14 13 13 13 14 15 15 16 17 16 16
4 5 7 8 9 9 6 6 9 9 7 11 11 8 7 7 8 9 10 10 10 9 9 9 11 11 9 9 9 7 7 7 6 6 6 6 5 5 5 6 6 6 7 7 7 7 8 9 12 10 5 6 6 3 2 3 3 5 8 9 10 10 10 11 14 15 15 14 15 16 16 16 16 15 15 16 17 16 16 16 16 17 17 17 16
7 5 6 6 7 10 9 7 8 9 9 7 7 7 7 7 8 10 11 10 10 9 8 8 8 7 7 6 6 7 7 7 7 7 6 6 5 5 5 6 6 7 8 7 6 7 8 10 13 9 3 3 3 3 3 4 6 7 8 8 9 10 11 14 16 14 12 12 15 16 16 16 15 17 18 18 18 17 17 17 18 18 18 18 17
10 7 5 5 6 8 8 7 7 8 8 7 5 3 5 8 8 8 8 9 10 10 10 10 9 9 7 5 4 6 7 7 7 7 6 6 6 6 6 6 6 7 7 7 7 8 9 11 12 9 5 4 4 4 5 6 8 7 7 7 8 9 12 14 15 12 11 12 15 17 17 15 16 18 17 17 17 18 17 17 18 19 19 18 18
8 8 6 5 6 6 6 6 6 6 6 6 7 6 4 4 6 5 5 6 6 8 8 9 9 10 10 8 6 6 7 8 8 7 7 6 6 6 6 6 6 6 6 7 7 8 9 10 11 10 8 7 6 6 8 9 9 9 8 7 8 10 13 13 13 12 13 14 15 16 16 16 16 16 15 15 16 17 16 17 17 18 18 18 18
5 6 6 6 6 6 6 6 6 6 6 6 6 7 7 5 2 2 6 6 5 5 5 6 8 8 9 8 8 8 10 11 9 7 6 5 5 6 6 5 4 4 4 4 5 6 7 9 10 11 11 11 10 11 11 10 9 10 10 10 11 13 13 12 12 14 16 15 14 14 15 15 14 13 14 15 15 15 15 16 17 17 18 18 17
3 4 5 5 6 6 7 7 7 6 6 6 6 6 6 5 5 3 2 3 3 4 5 6 5 6 5 6 7 10 12 12 9 6 5 4 4 4 4 4 5 5 5 4 3 3 4 6 7 8 9 10 10 10 10 9 9 10 12 13 13 13 12 12 13 15 17 16 14 13 15 15 13 12 13 15 15 15 15 16 16 17 18 19 20
3 4 4 4 4 5 5 5 5 6 5 4 5 5 4 4 4 4 4 3 4 3 2 6 4 2 3 6 7 10 11 11 9 5 4 5 4 4 3 3 5 6 5 4 4 4 4 3 4 5 6 6 6 7 8 9 10 11 12 14 14 13 12 13 14 16 18 17 14 14 15 15 14 14 15 15 15 15 15 16 18 19 21 23 24
3 5 3 3 2 2 3 3 3 5 6 5 4 4 4 4 4 4 4 4 4 4 2 3 3 3 5 7 9 10 10 11 10 6 3 4 6 7 6 5 6 8 10 10 9 8 8 9 9 7 5 4 4 4 5 5 7 8 10 11 12 12 13 14 14 15 17 16 14 15 16 16 16 16 16 16 17 16 16 18 19 20 22 23 23
3 2 3 4 3 2 2 2 2 3 5 4 4 4 4 4 4 3 4 3 2 1 1 3 6 8 9 8 9 9 9 11 13 11 6 3 6 9 11 11 13 16 18 18 18 18 17 18 18 16 13 10 9 7 5 5 7 8 9 9 10 11 12 13 14 15 16 16 17 17 18 17 17 17 17 17 16 16 17 18 19 19 20 21 21
3 1 3 5 5 2 2 2 1 2 3 4 4 3 3 3 4 4 4 4 4 4 4 4 8 11 10 8 9 11 10 10 12 13 9 6 9 13 14 15 16 18 17 17 17 17 17 18 19 18 17 16 15 14 12 10 10 10 10 10 10 10 11 11 13 14 15 16 17 18 18 18 17 17 17 17 17 17 18 18 18 19 19 21 21
3 2 2 4 3 2 1 1 1 2 4 5 5 4 3 3 4 4 5 5 5 5 5 5 8 9 8 9 12 13 11 8 8 10 9 7 10 14 14 14 15 16 15 15 15 15 15 16 17 17 16 15 14 14 13 13 12 12 12 11 11 11 11 11 11 12 13 14 15 16 17 17 16 16 17 18 18 19 19 20 20 20 21 22 23
3 3 1 2 3 2 1 1 2 4 4 4 3 4 5 5 5 4 5 5 5 4 4 5 8 8 9 12 13 12 9 4 4 8 7 6 8 11 12 12 13 13 13 14 14 14 14 14 14 15 16 15 14 13 13 13 13 13 13 13 11 11 11 11 12 13 14 14 14 15 16 17 17 17 17 17 17 18 18 19 20 21 22 23 24
2 2 2 1 1 1 0 0 3 3 2 2 2 4 5 6 6 5 5 4 4 4 4 3 5 6 10 14 12 9 7 4 4 6 7 7 8 9 9 8 9 10 11 12 12 13 14 13 13 14 15 14 14 13 14 14 13 12 12 12 12 11 12 12 12 13 13 13 14 15 16 17 17 17 17 18 19 19 20 21 22 22 23 24 25
2 2 2 2 1 1 1 1 2 1 1 2 3 4 4 4 4 4 4 3 3 3 4 2 2 4 10 13 11 10 10 8 6 8 10 9 9 10 10 9 8 8 8 9 10 11 12 12 12 12 12 12 12 12 12 12 12 12 12 11 10 10 11 11 12 13 14 14 14 15 16 17 18 19 20 21 22 23 24 24 25 24 24 24 24
2 4 4 3 3 2 1 1 0 1 1 2 2 1 2 2 2 2 2 3 3 3 4 5 5 7 9 9 9 10 11 10 10 11 11 11 12 13 13 11 10 8 8 8 9 10 10 10 10 10 10 10 11 11 10 11 12 12 11 9 9 9 10 11 13 14 14 14 15 17 18 18 18 19 19 20 21 22 22 22 22 22 22 23 23
3 5 5 5 5 4 3 2 2 1 1 1 1 1 1 1 1 1 1 2 4 5 6 6 6 6 6 6 7 8 8 9 9 9 8 10 12 13 12 11 10 10 8 8 8 9 9 8 9 9 9 10 10 10 11 12 11 9 7 7 8 9 11 12 13 12 13 15 18 19 18 17 17 18 18 19 19 20 20 21 21 22 23 23 23
4 5 5 5 7 6 5 4 3 2 2 1 1 1 1 2 1 1 2 3 4 5 5 5 5 5 4 4 5 5 6 6 6 5 6 9 11 10 10 10 10 10 9 8 8 8 8 8 9 9 9 10 9 9 10 10 8 6 6 7 8 9 11 13 13 14 16 19 20 19 18 17 18 18 18 18 19 19 20 20 20 21 21 22 22
4 5 5 5 5 5 4 4 4 2 1 1 2 2 2 1 1 2 3 2 2 2 2 3 4 4 4 4 4 4 4 5 5 4 5 8 9 8 8 8 9 9 9 9 8 6 6 7 8 9 9 9 9 10 9 8 5 5 7 9 10 12 14 15 16 18 20 21 20 19 19 18 17 16 17 17 18 19 19 20 20 20 20 21 21
6 6 5 4 3 3 3 4 4 3 3 3 3 3 1 0 1 1 0 1 1 2 2 3 3 4 4 4 4 3 3 4 4 4 5 6 7 7 6 7 7 8 8 9 8 7 6 7 8 8 9 9 9 10 8 6 5 7 11 13 14 15 17 17 18 20 21 21 21 21 20 18 17 17 17 17 18 19 19 19 19 20 20 20 20
7 6 5 5 4 3 3 3 3 3 2 3 3 2 2 1 1 1 1 1 1 1 2 3 3 3 3 3 3 4 3 3 4 4 5 5 5 5 5 6 6 7 7 8 8 8 7 7 8 8 8 8 8 9 8 6 7 10 13 15 16 16 17 18 19 20 21 22 23 22 21 20 19 19 18 17 18 19 19 19 19 19 19 19 20
7 5 4 4 5 4 3 2 2 1 1 1 0 1 1 1 1 2 2 1 1 2 3 3 2 2 3 3 3 3 3 4 4 4 4 5 5 5 6 6 6 7 7 7 7 7 7 7 8 8 8 7 8 8 7 6 9 13 15 16 16 16 17 19 21 22 24 25 25 23 21 20 20 18 17 17 18 18 19 19 19 19 18 19 20
6 3 2 2 4 3 3 3 2 2 1 1 0 1 1 1 2 2 2 1 2 3 3 3 3 3 3 3 2 2 3 3 4 4 4 5 5 5 6 6 6 7 7 7 7 6 7 7 7 7 7 7 7 6 6 8 12 15 16 16 16 17 19 21 23 25 26 26 25 23 21 20 18 17 18 18 18 19 19 19 19 20 21 22 23
Wind_Direction
180 184 188 189 188 187 189 193 195 198 200 201 200 200 201 196 196 203 202 200 201 203 209 208 206 209 211 215 219 215 214 215 215 216 219 222 224 231 236 233 234 239 245 251 253 254 252 244 247 256 255 258 262 269 271 260 253 248 249 260 262 250 252 242 231 260 291 306 309 309 313 317 316 314 318 317 313 313 317 318 314 312 312 316 324
181 184 190 190 189 190 193 194 197 200 200 201 202 203 202 198 199 204 205 205 204 205 213 213 211 213 213 215 219 218 216 216 219 218 216 221 225 227 232 231 236 243 244 249 251 249 250 247 247 253 252 251 253 258 264 265 256 240 241 253 268 282 275 259 240 253 291 306 311 310 314 316 311 313 315 310 309 312 314 314 315 315 315 320 323
183 182 188 191 191 193 196 195 197 202 204 204 206 206 205 202 200 198 199 205 206 208 216 213 211 217 216 215 217 219 220 218 221 222 218 221 224 226 230 231 235 240 241 243 246 245 247 246 246 249 250 248 248 251 262 271 272 267 257 255 268 274 260 254 262 264 283 302 312 313 313 314 310 307 307 306 309 310 308 310 314 315 314 316 319
186 184 190 192 194 196 197 198 199 203 206 208 209 209 209 207 200 196 201 210 208 211 219 217 219 221 217 219 222 221 222 222 223 224 223 224 227 230 233 233 233 236 239 241 242 241 243 244 244 246 251 255 253 255 265 271 272 275 268 261 264 264 254 255 271 277 280 290 301 306 305 304 302 299 298 300 302 302 301 304 307 310 311 312 317
191 186 190 193 197 201 200 200 202 204 206 210 212 213 214 212 205 200 203 211 210 212 218 220 225 226 218 219 228 226 225 227 226 225 227 229 228 230 234 239 243 241 240 243 244 243 245 247 248 247 252 256 255 256 262 263 266 269 266 262 266 268 263 258 264 273 273 272 282 293 294 294 296 298 301 303 303 301 297 296 296 300 303 304 311
193 187 187 190 196 205 207 206 206 207 210 212 214 214 214 216 213 202 198 206 212 214 217 218 223 228 223 219 227 230 226 227 230 230 230 230 229 229 231 238 245 246 245 247 248 247 248 251 252 251 251 254 253 254 258 258 262 268 267 268 273 273 273 273 268 268 270 272 279 287 289 293 298 304 307 304 300 295 289 289 294 301 304 303 309
195 190 192 194 195 200 211 215 212 212 214 216 219 219 217 219 218 206 196 201 207 210 215 219 220 224 224 221 227 232 229 229 234 233 232 233 233 233 233 235 239 244 249 250 250 250 250 249 250 248 246 249 251 254 259 258 257 265 271 272 273 270 272 279 281 283 288 291 292 293 295 299 302 303 302 295 291 292 291 292 301 317 328 324 323
190 191 197 201 200 203 212 217 215 217 220 221 222 224 223 223 223 213 199 199 206 208 212 219 221 221 222 223 225 228 230 231 234 235 235 236 235 234 236 237 239 244 249 251 252 253 252 251 250 248 246 246 245 246 255 257 254 259 267 271 276 280 282 289 296 299 300 297 295 296 297 298 296 294 293 291 295 306 310 307 314 334 341 330 323
182 189 194 200 204 208 213 217 221 224 227 230 231 232 234 233 231 224 209 204 209 212 214 219 220 218 219 222 223 225 228 230 233 235 235 236 235 234 235 235 237 242 248 251 253 254 255 253 252 252 251 248 242 239 241 245 247 249 254 264 276 284 285 287 289 291 292 288 288 290 291 291 292 294 298 304 312 319 325 330 336 340 334 323 317
178 191 195 200 203 204 209 217 221 220 221 227 229 232 243 248 245 238 221 211 213 217 222 226 222 217 218 219 220 224 226 229 234 234 233 235 236 235 237 239 240 242 248 254 255 256 258 256 255 255 255 253 252 244 237 237 243 249 254 259 262 264 269 274 277 278 279 279 281 286 289 290 296 304 313 318 319 327 338 341 337 331 326 320 315
194 206 210 213 207 201 206 213 213 206 196 201 211 215 224 237 246 250 242 228 225 227 229 230 224 219 221 221 221 225 227 231 237 238 233 232 235 237 241 244 245 245 251 256 258 259 262 265 265 262 258 259 262 256 248 248 253 257 260 264 262 259 259 262 265 266 269 274 279 285 289 293 301 310 313 313 315 325 331 329 325 321 318 314 310
232 234 232 234 230 225 228 224 220 211 192 180 209 240 236 244 251 256 255 246 244 245 237 230 224 220 222 223 225 229 231 231 239 245 238 231 232 237 240 243 247 248 251 256 259 260 262 267 274 274 269 264 262 258 257 258 260 262 264 267 266 263 261 260 261 263 266 272 278 281 282 288 293 297 298 301 307 313 315 314 313 312 308 306 303
234 239 241 244 242 242 246 254 262 243 227 234 253 264 269 274 269 266 267 256 253 255 249 236 234 230 226 228 235 241 242 241 247 251 243 238 239 239 237 242 251 254 258 261 259 258 261 266 274 279 282 280 276 271 266 262 263 265 267 269 271 272 270 267 264 264 265 265 267 270 272 273 276 280 287 293 297 302 305 306 308 307 304 303 301
225 230 236 243 244 245 249 257 270 255 233 242 247 249 257 264 261 259 261 257 257 260 255 248 245 239 234 239 247 251 249 251 256 253 246 247 247 239 233 239 252 261 270 276 274 271 274 278 281 284 289 290 288 286 281 274 270 268 267 269 273 276 278 278 275 270 268 265 263 265 267 269 270 275 286 293 292 294 302 307 309 307 304 303 302
122 192 198 203 220 232 238 243 245 226 213 223 234 242 247 251 249 249 252 253 254 256 255 253 250 245 241 246 255 258 240 242 252 254 250 246 240 230 228 236 251 261 268 279 288 289 288 288 290 295 302 305 299 294 289 281 274 271 272 273 274 276 280 283 283 281 278 272 267 267 269 270 269 273 285 297 298 299 308 311 310 308 307 306 305
78 114 167 176 185 204 217 220 228 236 230 221 227 237 239 241 242 242 244 246 245 245 250 252 250 246 244 245 252 255 243 237 242 240 235 231 223 220 230 243 256 268 270 277 290 299 298 293 290 291 299 308 310 307 304 293 280 274 275 278 283 286 287 288 290 293 294 285 274 272 272 269 269 276 287 301 310 312 314 312 311 311 310 306 304
71 80 114 124 93 108 155 215 238 246 242 236 240 240 236 239 242 240 239 236 234 237 243 245 246 247 246 244 247 244 236 237 236 216 203 208 212 216 231 253 266 272 273 274 277 283 291 294 294 293 292 291 290 291 298 301 295 289 285 287 292 295 297 299 298 300 307 307 296 290 287 281 280 286 291 297 306 311 310 308 310 312 309 304 303
60 62 68 72 76 88 103 141 232 240 227 236 247 244 242 244 244 239 235 233 233 236 238 239 241 240 235 232 235 231 221 219 217 207 203 208 214 216 224 246 259 261 265 269 270 275 285 288 286 284 280 276 272 269 276 288 294 300 303 299 295 295 299 305 305 301 306 310 310 307 302 298 297 299 300 300 303 308 308 305 308 311 305 302 308
55 55 56 68 81 87 94 101 100 94 98 118 153 201 239 252 244 238 236 236 238 239 241 245 246 241 232 223 214 207 202 200 204 214 214 211 213 222 233 244 254 260 270 276 274 274 278 280 281 278 272 270 267 266 276 284 287 295 304 307 306 304 304 306 309 309 307 307 309 308 305 305 305 306 308 308 309 313 313 308 311 312 304 304 312
56 58 59 69 78 80 82 90 97 99 97 101 108 115 112 110 165 216 219 222 234 242 246 250 250 241 227 213 202 199 194 189 195 214 222 216 216 224 235 243 251 257 269 279 277 275 273 273 275 273 267 266 267 270 282 290 291 292 296 302 305 301 298 299 303 307 306 306 306 306 306 307 307 308 311 310 310 313 313 309 310 311 304 303 306
59 60 61 65 71 78 82 84 88 90 92 94 91 83 89 112 133 146 161 165 158 152 146 130 118 185 180 174 171 173 169 164 172 188 207 204 195 201 216 229 238 245 259 276 280 284 286 273 267 268 271 274 276 279 285 291 293 292 292 293 293 292 295 300 304 306 306 307 306 303 303 306 309 310 308 307 308 310 311 311 312 313 311 307 304
59 57 58 60 62 63 71 83 81 72 69 74 74 70 76 95 110 100 106 131 140 138 127 108 91 97 125 142 146 147 141 135 140 131 76 81 121 155 194 219 243 253 286 305 296 309 319 296 271 267 275 281 282 283 287 290 290 290 291 291 294 297 298 299 302 305 305 303 303 303 304 309 314 317 316 315 316 313 311 314 316 318 317 309 301
61 55 51 57 59 48 45 66 78 73 67 66 65 66 70 74 74 75 97 127 144 150 148 136 120 114 116 115 116 117 109 100 97 92 82 76 78 89 111 124 177 171 96 30 348 350 347 326 296 283 286 290 291 292 292 292 292 292 294 298 301 301 297 294 296 301 303 303 304 306 311 315 321 328 333 336 335 326 321 322 324 324 323 316 309
64 60 50 53 60 56 47 53 66 73 72 67 66 69 67 65 68 76 86 98 115 129 143 153 144 130 118 106 101 98 94 90 86 85 85 81 76 76 78 82 115 135 101 50 15 9 348 323 307 301 299 297 296 294 291 292 295 296 299 306 308 303 305 311 312 308 303 302 304 312 323 338 351 354 352 351 348 342 338 336 336 336 334 329 325
46 54 55 43 43 53 57 51 53 61 68 71 71 73 73 66 65 72 71 68 82 103 117 130 133 129 121 113 109 105 99 93 87 83 79 72 69 67 59 56 66 77 67 39 350 338 326 313 304 299 305 316 318 316 319 320 319 313 308 304 301 307 321 330 324 315 313 318 331 344 356 3 3 357 348 342 343 347 346 341 339 338 333 329 326
27 33 43 39 37 53 63 59 58 52 45 48 54 55 68 74 61 51 50 52 62 81 101 115 117 118 118 117 120 119 108 98 91 87 81 74 70 64 51 44 43 47 42 8 325 319 316 310 303 297 322 13 5 354 0 352 334 334 338 328 312 309 322 327 326 343 5 10 5 1 356 349 343 341 339 338 341 344 341 337 336 334 332 331 328
18 25 34 32 29 40 48 50 72 69 44 34 40 40 42 53 51 38 31 31 33 32 48 102 108 108 115 114 111 111 108 101 94 89 83 79 76 65 54 43 28 28 19 328 300 297 297 296 292 278 298 49 18 349 340 332 326 339 354 358 347 333 329 339 14 37 32 18 4 352 344 340 339 338 337 337 336 334 333 334 333 332 336 337 332
11 20 35 38 24 18 19 21 56 91 74 35 29 34 38 44 47 35 25 25 26 22 23 44 55 53 62 79 89 96 94 85 81 75 66 66 62 52 45 32 13 2 339 313 295 288 289 290 286 270 254 252 321 323 312 311 353 353 358 14 18 10 12 30 42 38 23 10 359 348 343 343 340 335 331 330 330 331 332 332 328 327 332 332 327
358 8 25 43 28 10 22 24 20 53 104 98 68 44 41 45 44 33 23 22 27 26 27 38 45 46 46 51 67 83 76 59 56 51 42 44 40 29 20 9 2 354 337 325 311 300 302 306 297 280 254 240 252 274 293 124 101 49 29 32 25 20 33 41 28 17 10 4 355 348 348 344 335 333 335 336 338 339 336 334 330 328 327 323 319
345 19 24 30 18 9 29 43 17 17 68 97 96 89 74 61 52 46 38 28 25 28 31 35 44 55 53 40 42 55 52 37 27 22 22 21 14 11 4 353 349 347 343 337 322 315 323 319 307 295 257 235 255 281 28 56 61 44 34 31 24 27 44 39 17 8 6 2 356 353 349 338 334 343 351 348 346 344 342 341 341 337 333 328 324
355 28 46 44 25 19 28 35 24 22 34 57 83 108 112 96 75 64 60 53 42 39 40 40 47 65 68 46 24 18 17 11 3 0 1 356 348 347 346 345 348 349 348 349 341 330 324 312 308 312 310 284 308 2 40 47 49 43 32 20 13 22 34 27 16 12 8 2 359 354 344 341 350 359 356 348 345 346 346 347 347 343 339 338 337
15 19 43 53 44 42 39 27 23 31 32 30 34 65 127 128 111 85 73 71 66 61 60 59 59 61 61 53 19 356 353 351 347 342 338 335 337 337 335 337 340 340 341 344 343 339 332 322 319 326 328 319 340 7 16 26 34 29 21 15 14 26 31 23 17 18 15 9 2 351 343 350 1 358 349 344 346 347 347 347 345 342 342 344 345
33 27 30 33 36 49 55 46 34 29 29 28 18 9 32 107 125 128 122 106 91 83 78 74 68 56 47 45 44 30 12 357 345 337 328 323 323 322 323 329 334 335 338 341 337 331 330 332 338 351 359 358 0 7 16 27 25 10 4 9 15 23 27 24 22 23 19 10 359 346 343 351 355 349 343 343 345 344 344 344 342 342 343 343 342
60 51 40 31 32 37 44 50 44 32 29 26 11 7 22 28 25 151 155 153 147 134 118 99 81 59 45 50 57 39 15 360 352 352 351 341 327 318 317 323 329 326 320 324 330 329 328 336 350 2 7 8 13 15 15 17 11 2 6 17 21 20 19 18 19 19 11 2 353 345 342 341 342 341 340 340 340 342 343 343 342 342 342 341 341
113 86 59 44 41 38 39 45 40 28 23 16 4 8 21 8 350 6 100 146 162 169 167 145 100 52 46 69 58 29 14 9 6 14 27 19 353 330 326 321 314 311 302 286 286 301 314 328 346 356 358 3 10 11 7 9 10 12 20 25 23 21 16 10 6 3 356 349 343 338 333 330 334 343 342 337 338 344 345 344 344 344 345 345 343
149 125 92 59 47 41 42 49 42 30 29 21 0 359 7 6 4 9 19 35 38 34 129 148 133 60 65 76 45 18 15 17 11 10 47 54 33 9 355 324 305 310 312 288 259 247 253 284 317 332 340 353 359 352 354 11 23 29 32 30 24 17 9 0 355 352 349 340 330 327 331 337 346 352 346 339 341 348 351 350 349 348 347 343 337
123 114 71 39 61 56 44 54 42 30 34 31 9 358 5 15 16 10 19 41 34 12 31 113 132 133 109 80 46 19 7 11 16 25 57 60 29 4 350 335 332 349 10 21 23 26 26 24 21 11 346 337 346 339 341 8 24 27 29 31 26 16 6 358 354 354 351 344 339 343 350 353 354 352 348 347 350 354 354 353 349 344 339 335 330
143 127 7 28 84 89 36 45 24 14 24 25 14 13 16 17 18 15 17 26 24 4 39 65 75 83 83 65 41 18 355 358 13 18 10 10 22 16 13 16 21 25 29 30 30 31 33 30 31 33 33 32 36 37 30 26 26 20 16 16 15 10 3 358 355 352 350 351 353 357 358 355 351 349 348 347 347 347 346 344 339 333 330 329 327
169 249 7 53 80 65 20 29 9 10 32 35 33 33 26 21 28 24 6 0 19 39 38 49 68 71 58 31 23 21 6 354 356 356 352 11 36 33 28 27 30 31 30 26 24 27 30 29 28 33 39 42 45 46 40 33 31 29 24 22 19 10 1 356 354 351 348 349 350 349 347 345 344 345 346 344 342 340 338 334 330 328 327 325 322
178 207 28 42 46 37 25 10 4 39 47 39 28 21 21 33 34 16 2 11 31 38 39 60 76 69 38 10 7 6 0 350 337 335 341 12 33 33 31 29 30 30 28 24 21 22 25 27 26 28 32 35 36 36 32 27 28 27 23 19 14 5 356 353 353 351 348 346 346 345 344 343 342 342 340 337 334 332 331 328 327 327 324 321 319
180 180 173 8 16 32 39 348 48 58 47 26 9 6 19 33 33 17 12 21 26 22 32 70 88 73 30 13 6 358 358 356 325 326 340 12 35 40 38 33 32 32 27 23 21 18 18 22 23 24 25 23 19 17 15 11 11 14 14 12 9 2 355 351 351 352 354 354 354 353 349 346 346 344 340 335 332 329 327 326 325 324 321 318 316
201 197 199 206 44 54 189 119 77 64 39 17 28 30 28 25 19 16 18 14 9 9 16 65 112 85 32 22 23 22 20 4 324 340 8 25 32 37 38 34 34 31 24 22 21 17 16 17 19 22 24 20 15 15 14 9 8 9 9 6 1 357 356 356 356 359 0 359 357 356 355 354 352 349 346 343 340 336 331 327 324 320 316 312 310
220 264 245 211 204 194 157 105 75 44 30 68 57 39 28 18 4 3 6 2 2 5 358 5 79 45 21 20 25 21 9 1 2 18 26 23 20 27 34 36 35 27 17 15 16 12 12 14 14 16 18 15 13 15 14 11 7 2 356 354 357 2 7 7 6 6 5 0 356 354 352 351 349 344 338 336 334 330 326 321 316 312 309 308 307
224 249 243 227 223 216 176 122 319 305 52 56 35 8 1 359 343 338 349 4 13 11 1 2 8 3 3 12 19 12 8 13 21 23 20 19 24 32 36 38 39 34 22 13 12 12 12 9 7 8 10 10 12 13 11 8 4 358 353 359 9 12 9 6 4 6 6 1 354 348 344 343 342 338 333 331 328 324 319 316 313 311 310 310 310
224 240 237 222 209 196 183 197 230 238 255 295 297 245 226 268 277 277 8 31 29 23 13 6 1 353 350 1 11 11 9 12 13 14 17 21 25 28 31 34 36 33 22 14 15 17 12 5 2 3 3 4 7 8 6 4 0 354 356 9 14 10 8 6 4 0 353 345 343 342 340 338 336 331 327 324 322 317 313 312 312 311 310 309 308
232 243 241 232 224 212 197 193 198 201 213 259 294 286 266 257 248 78 60 49 36 23 8 352 342 337 337 352 5 8 5 1 360 6 18 22 22 23 24 25 26 23 17 16 17 14 8 5 6 6 2 0 360 359 359 1 2 1 8 14 12 8 7 4 356 346 341 342 343 343 338 332 328 324 320 317 315 312 309 308 307 307 307 306 306
259 253 242 240 241 228 198 178 175 178 208 281 280 273 278 318 52 63 56 39 10 342 329 328 327 326 329 348 359 357 355 358 356 353 4 16 21 21 16 12 12 11 9 9 8 1 355 358 3 5 5 3 359 355 352 352 354 0 5 6 2 358 357 355 349 344 344 346 346 342 336 329 323 318 315 314 312 309 307 306 305 304 303 303 303
250 245 230 228 229 209 189 183 182 195 232 246 237 226 228 354 20 30 2 287 286 298 312 320 320 321 328 342 341 331 332 345 348 344 349 0 6 6 2 358 357 356 356 357 359 356 348 343 347 354 358 357 357 359 357 347 343 352 357 359 359 356 353 349 345 344 345 346 344 341 337 331 322 317 314 312 309 307 306 305 305 305 305 304 305
242 234 219 212 206 198 199 194 185 191 214 221 207 192 184 196 219 245 265 271 298 318 310 304 306 311 316 320 318 318 323 331 339 345 348 349 353 359 358 354 352 351 348 347 347 343 335 331 337 346 350 348 350 354 353 347 351 356 355 355 355 352 347 343 341 340 340 340 339 337 334 330 326 323 317 311 308 308 307 305 306 307 307 307 307
232 228 218 199 186 185 181 158 150 157 140 113 167 212 198 204 237 243 245 265 301 297 283 279 283 292 298 303 309 322 333 339 344 347 346 346 353 360 357 353 354 354 351 350 348 343 338 337 339 343 345 342 340 339 340 350 1 358 353 349 347 342 337 336 336 335 335 335 334 332 330 329 329 324 315 309 309 309 306 306 307 307 307 308 309
207 208 214 146 142 156 165 161 173 192 170 124 325 278 253 252 267 271 271 280 284 276 274 279 283 283 287 297 304 316 335 346 345 344 344 347 352 356 354 354 354 353 351 352 353 351 349 348 345 342 340 336 330 329 339 355 359 354 347 342 337 332 329 330 330 330 329 329 328 328 329 329 324 315 307 306 309 308 306 306 307 307 308 310 308
Height
815 818 819 821 823 825 827 828 830 831 832 833 835 836 838 839 840 842 843 844 845 846 847 848 849 850 851 852 853 853 854 855 856 856 856 856 856 857 857 857 858 858 858 858 858 858 859 859 859 859 859 859 859 859 859 859 859 859 859 859 859 859 859 859 859 858 857 857 856 855 854 854 853 852 852 851 850 849 848 848 847 845 844 843 842
813 816 818 820 821 823 825 827 828 830 831 832 834 835 836 837 838 840 841 842 843 845 846 847 848 849 850 851 852 852 853 853 854 855 855 855 855 856 856 856 857 857 857 858 857 858 858 858 858 858 858 858 858 858 858 858 858 858 858 858 859 859 858 858 858 857 856 856 855 855 854 853 852 852 851 850 849 848 848 847 846 845 844 842 841
812 814 816 818 820 822 823 825 827 828 829 831 832 833 835 836 837 838 840 841 842 843 845 846 847 848 849 850 850 851 852 852 853 854 854 854 854 855 856 855 856 856 856 857 857 857 857 857 857 857 857 857 857 857 858 857 857 857 857 857 858 858 858 858 857 857 856 855 854 854 853 853 852 851 850 849 849 848 847 846 845 844 843 842 840
811 813 815 817 818 820 822 823 825 826 828 829 830 831 833 834 835 837 838 840 841 842 844 845 846 846 848 849 849 850 851 851 852 853 853 853 853 854 854 855 855 855 856 856 856 856 856 856 856 856 856 856 856 857 857 857 857 857 857 857 857 857 857 856 856 856 855 854 854 854 853 852 851 850 849 848 847 847 845 844 844 843 841 840 839
811 812 814 816 817 818 820 821 823 824 826 827 828 830 831 832 834 835 837 839 840 841 842 843 844 845 846 847 848 849 850 850 851 852 852 852 852 853 853 853 854 854 855 855 855 855 856 856 856 856 856 856 856 856 856 856 856 856 856 856 856 856 856 856 855 855 854 854 853 853 852 851 849 848 848 847 846 845 844 843 842 840 839 838 838
811 812 813 814 816 817 818 820 821 822 824 825 826 828 829 830 832 833 835 837 838 840 841 842 843 844 845 846 847 848 848 849 850 851 851 851 851 852 852 852 853 854 854 854 855 855 855 855 855 855 855 855 855 855 855 855 856 856 856 856 855 855 855 855 855 854 854 853 852 851 850 849 849 848 847 846 845 843 842 841 840 839 838 837 837
811 811 812 813 814 816 817 819 820 821 822 824 825 826 827 828 829 831 833 835 836 838 839 841 842 842 844 845 846 846 847 848 849 850 851 851 851 851 851 852 853 853 854 854 854 854 854 854 854 854 854 854 854 854 854 854 855 855 855 854 854 854 854 854 854 854 853 853 852 851 850 849 848 847 846 845 843 842 841 840 838 838 837 836 835
810 810 811 812 813 815 817 819 819 820 821 822 824 825 825 827 828 829 831 833 835 836 837 839 840 841 842 843 844 845 846 847 848 849 850 850 850 850 851 851 851 852 853 853 853 853 852 852 852 852 852 852 852 853 853 853 853 853 853 853 853 853 853 853 853 853 853 852 851 850 850 849 847 846 845 843 842 841 840 839 838 837 836 835 834
808 810 811 812 813 815 817 818 818 819 821 821 823 824 825 826 827 828 830 831 833 834 835 837 839 839 840 842 843 844 845 846 846 847 848 849 849 850 850 850 850 851 852 852 851 851 851 851 851 851 851 851 850 851 851 852 852 852 852 852 852 852 852 852 852 852 852 851 851 850 849 848 847 845 844 843 842 841 840 839 837 836 835 833 832
807 809 810 812 813 815 816 817 817 818 819 821 822 824 825 826 826 827 829 830 831 832 833 835 837 838 839 840 842 843 844 844 845 846 847 848 848 849 849 849 849 850 850 850 850 850 850 850 850 850 850 850 849 849 850 850 850 850 851 851 851 851 851 851 851 851 851 850 849 849 848 847 846 845 844 842 842 840 839 838 837 835 835 833 830
807 809 810 812 813 814 815 816 816 817 818 820 822 823 824 825 826 826 827 828 830 832 833 835 837 838 839 839 840 842 842 843 843 844 845 846 847 848 848 848 848 848 849 849 849 848 848 848 848 848 848 847 847 847 848 848 848 849 849 849 849 850 850 850 850 850 849 849 848 848 847 846 845 845 843 842 841 840 838 838 837 835 834 833 830
808 810 811 812 813 814 815 816 816 817 818 820 822 824 825 826 826 827 827 827 829 831 832 834 836 838 838 838 838 840 841 841 842 843 844 844 845 846 847 847 847 847 847 847 847 847 847 847 847 846 846 846 847 847 846 847 847 847 847 847 847 848 848 848 848 848 848 848 847 847 846 845 844 843 843 842 840 839 838 837 836 835 833 832 830
808 810 811 813 813 814 815 816 817 818 819 820 822 823 825 826 827 827 827 827 828 829 830 831 833 835 836 836 837 839 839 840 840 842 842 843 844 844 845 846 845 845 845 845 845 845 845 846 846 845 845 846 846 846 845 845 845 845 845 845 845 846 846 846 846 846 846 846 845 844 843 843 842 841 841 840 839 838 837 836 835 834 833 831 829
807 809 811 812 813 814 815 815 817 819 821 821 821 821 823 825 826 827 827 827 827 828 829 830 831 832 833 834 836 836 836 838 839 839 840 841 842 842 843 844 844 844 844 844 844 844 844 845 845 844 845 845 845 844 844 844 844 844 844 844 844 844 844 844 844 844 843 843 842 840 840 840 840 839 839 839 838 837 836 835 834 833 831 830 828
807 808 809 810 811 812 812 813 815 817 819 820 821 821 823 824 824 825 825 826 827 827 828 829 830 831 831 832 833 833 834 836 838 837 837 837 839 841 842 843 843 843 843 843 843 844 843 843 843 843 843 843 843 843 843 843 843 843 843 842 842 842 842 842 842 841 841 840 839 838 838 839 839 838 838 837 836 835 834 833 832 831 829 828 825
807 808 808 808 809 810 811 812 813 814 816 818 820 821 822 822 822 822 822 823 825 826 827 828 829 829 829 830 831 832 833 834 835 836 835 836 838 840 841 842 842 842 842 843 843 842 842 841 841 841 841 842 842 842 842 842 842 841 842 842 842 842 841 841 841 840 839 839 838 838 837 838 837 837 836 836 834 833 832 831 830 829 828 826 824
807 808 808 809 809 810 810 811 811 812 814 816 818 818 818 819 819 820 821 822 823 824 825 826 826 827 827 828 829 831 832 834 834 834 835 836 838 839 840 841 841 841 841 841 841 840 840 840 840 840 840 840 840 840 840 840 840 840 840 840 841 841 840 840 840 839 838 837 837 837 836 836 836 835 834 833 832 832 830 829 828 828 828 826 824
808 809 809 810 810 811 811 811 810 812 813 815 817 816 816 816 817 818 820 821 821 822 823 823 824 825 826 827 828 830 831 833 833 833 834 835 836 837 839 839 839 839 839 839 839 839 839 838 838 839 839 838 838 838 838 838 839 839 839 839 840 839 839 839 838 837 836 835 834 834 834 833 833 832 832 831 831 830 829 828 827 827 827 827 826
810 811 811 811 812 813 813 813 812 813 814 815 816 815 815 815 816 817 819 819 820 820 821 821 823 824 825 826 828 829 829 830 832 833 834 833 834 836 837 838 838 838 837 837 837 837 837 837 837 837 837 836 836 836 836 836 837 838 838 838 838 838 838 837 836 835 834 834 833 832 831 831 830 830 829 829 829 828 827 826 826 826 826 825 825
813 813 814 814 814 815 815 815 814 815 815 816 816 816 815 815 816 817 817 818 819 819 820 820 821 822 823 824 826 827 828 828 831 833 834 832 832 834 836 836 836 837 837 836 836 836 836 835 835 835 835 835 835 835 835 836 836 837 837 837 837 837 836 836 835 835 834 833 832 831 830 829 828 828 828 827 827 827 826 826 825 826 825 823 822
817 817 817 816 816 817 816 816 816 816 816 817 817 817 816 816 816 817 817 818 818 819 819 820 821 822 822 822 824 825 826 827 830 832 833 832 831 832 834 835 836 836 836 835 835 835 835 835 834 834 834 834 834 834 834 835 835 835 836 836 836 836 835 835 834 833 833 832 831 830 829 828 827 827 826 826 825 825 825 825 825 825 824 822 820
821 820 820 819 818 818 818 818 817 817 817 817 817 817 817 817 817 817 817 818 819 819 820 821 822 824 824 822 822 824 826 827 829 831 833 833 832 832 833 835 835 836 835 835 834 835 835 835 834 834 834 834 834 834 834 834 834 834 834 834 835 834 834 833 832 832 832 831 830 829 828 828 826 826 825 824 824 824 824 824 824 824 823 822 820
823 822 822 821 819 819 821 820 819 818 818 818 818 818 818 818 818 818 818 819 819 820 821 822 823 824 825 824 824 824 826 828 829 831 832 833 833 833 834 835 836 835 835 835 834 834 834 835 835 834 833 833 832 833 833 833 832 832 833 833 833 833 832 832 831 831 831 830 830 829 828 827 826 825 824 824 823 823 822 822 822 822 821 820 819
825 824 825 823 821 822 823 822 820 819 819 819 819 819 820 819 819 819 820 820 821 821 822 823 823 824 825 826 827 827 828 830 832 832 833 834 834 835 835 836 835 835 835 835 834 834 834 834 835 834 833 832 831 831 831 831 831 831 831 831 832 831 831 830 830 830 830 830 829 828 828 827 826 825 824 823 822 822 821 821 821 820 820 819 817
826 826 825 824 823 823 823 822 821 821 821 821 821 821 822 821 820 821 821 821 821 822 822 823 824 825 825 826 827 829 830 832 834 834 834 835 835 835 836 836 836 835 834 834 834 834 834 834 834 833 832 831 830 830 829 829 829 829 830 830 831 831 830 830 830 830 830 830 829 828 828 827 827 826 824 823 822 821 821 820 819 819 818 817 816
828 826 825 824 824 824 823 822 821 822 823 823 822 822 822 822 822 822 822 822 822 823 823 823 824 825 826 826 828 829 831 832 834 834 834 835 835 836 837 837 837 836 834 833 833 833 833 833 833 832 831 830 829 829 829 829 829 829 830 830 830 830 830 831 831 831 830 829 829 828 828 827 826 825 824 823 822 821 820 819 818 818 817 815 814
829 827 826 826 825 825 824 823 823 823 823 823 823 822 822 823 823 823 823 824 823 823 823 823 824 825 826 827 829 830 832 833 833 834 835 835 836 836 837 837 836 835 834 833 833 832 832 832 831 831 830 829 829 829 828 829 829 829 829 829 830 830 831 831 831 830 830 830 830 829 828 827 826 825 824 823 822 821 820 820 818 817 816 815 813
831 829 828 827 827 826 826 825 824 824 824 824 825 825 825 824 825 825 825 826 825 825 825 824 825 826 827 828 830 831 833 834 834 835 835 835 836 836 836 836 835 834 834 834 833 832 831 831 830 830 830 829 829 828 828 828 829 829 829 829 830 830 830 831 830 830 830 831 830 829 828 828 827 826 824 823 822 821 820 820 819 818 816 815 814
833 832 829 829 829 828 828 827 826 825 825 826 827 829 829 827 827 827 827 827 827 827 827 826 827 828 828 830 831 833 834 835 835 836 836 835 836 836 835 835 835 834 834 833 832 831 831 830 830 829 829 829 828 828 828 828 829 829 830 830 830 830 830 830 830 831 831 831 830 830 829 828 827 826 824 823 823 822 821 820 819 817 816 816 814
833 833 831 830 829 828 829 829 828 827 826 827 828 829 830 829 828 828 828 828 828 828 828 828 829 830 830 831 832 833 834 835 835 835 835 835 835 835 835 835 834 834 833 833 832 831 830 830 829 828 827 828 828 827 828 829 829 830 830 830 831 831 830 830 831 831 831 831 831 830 829 828 827 826 825 824 823 822 821 820 819 818 817 815 814
834 833 832 831 830 829 830 831 830 829 828 828 829 829 829 830 830 829 829 829 829 829 829 829 830 831 832 833 833 834 835 835 835 835 835 835 835 835 834 834 833 833 833 832 831 831 830 829 829 827 827 827 827 827 828 828 829 830 830 831 832 831 830 831 832 831 831 831 831 830 829 828 827 826 825 825 824 823 822 820 819 818 817 816 815
835 835 834 833 832 831 831 832 832 831 830 830 830 830 830 830 830 830 831 831 831 831 831 832 832 833 834 835 835 835 836 835 835 835 835 835 835 834 834 834 833 833 832 831 831 830 830 829 828 827 827 827 827 828 828 829 829 831 831 831 832 831 831 831 831 831 831 831 831 830 829 828 828 827 827 826 825 824 823 821 820 819 818 817 816
836 836 836 835 834 833 833 833 833 833 832 832 831 831 831 831 831 831 832 832 832 833 833 833 834 834 835 835 836 836 836 836 835 835 834 834 834 834 833 833 832 832 832 831 830 830 829 829 828 828 828 828 828 828 829 829 830 831 831 831 832 831 831 832 831 831 831 831 831 831 830 829 829 828 828 827 826 825 824 823 822 820 819 818 817
836 837 836 836 835 834 833 833 833 833 833 833 832 832 832 832 832 831 832 832 833 833 833 834 835 835 835 835 835 836 835 835 834 834 834 833 833 833 833 833 832 832 831 831 831 830 830 830 829 829 829 828 828 829 829 830 831 831 831 831 831 831 831 832 832 832 832 832 832 831 830 830 829 828 828 827 826 825 824 823 822 821 820 819 818
836 836 836 836 836 835 834 833 833 833 833 833 833 833 833 833 832 832 832 832 832 833 833 834 834 835 835 835 835 835 835 834 834 834 833 833 833 833 833 832 832 832 831 831 831 831 831 830 830 830 830 830 830 830 831 831 832 832 831 831 831 832 832 832 832 833 832 832 832 831 831 830 829 828 828 827 826 825 825 824 823 822 821 820 819
835 836 836 836 835 834 834 834 833 833 834 834 834 833 833 833 833 832 832 832 832 833 833 834 834 835 835 835 836 836 835 835 834 834 833 833 833 833 833 833 833 832 832 831 831 831 831 831 831 830 830 830 831 831 832 832 832 832 832 832 832 833 833 833 833 833 833 833 832 831 831 830 829 828 828 827 826 826 825 824 824 823 822 821 820
834 834 834 834 834 834 834 834 834 834 834 834 834 834 833 833 834 833 833 833 834 834 834 834 835 835 836 837 837 836 836 835 835 834 834 834 833 833 834 834 833 833 832 831 831 831 831 831 830 830 830 831 831 831 832 832 832 832 833 833 833 834 834 834 834 834 833 833 832 831 830 829 829 828 828 827 827 826 825 825 824 824 823 822 821
833 833 833 833 833 833 834 834 834 834 834 834 834 834 834 834 834 834 834 834 834 834 834 835 835 836 837 838 838 838 837 836 835 834 834 834 835 835 835 835 834 834 833 833 833 832 832 832 831 831 830 830 831 831 832 833 833 833 833 833 833 834 834 834 834 834 834 833 832 831 831 830 829 829 828 828 827 826 826 825 825 824 823 822 820
832 832 832 832 832 833 833 833 833 834 834 834 834 834 834 834 834 834 835 834 834 834 835 835 836 837 838 838 838 838 838 837 836 835 835 835 835 836 836 836 835 835 835 835 835 835 834 834 833 833 832 832 831 832 833 833 833 834 834 834 834 834 835 835 834 834 834 833 832 832 832 831 830 829 829 828 828 827 826 825 824 823 822 821 820
831 831 832 832 832 832 832 833 833 833 834 834 834 834 834 834 834 835 835 835 835 835 836 836 837 837 838 838 837 837 838 838 837 837 836 836 836 836 836 836 837 837 837 838 837 837 837 836 835 835 835 834 834 834 834 834 834 834 834 834 835 835 835 835 834 834 834 833 832 832 832 831 830 829 829 828 828 827 826 825 824 823 822 820 819
830 831 831 831 832 832 832 833 833 833 834 834 834 834 834 834 834 835 835 835 835 836 836 836 837 837 838 837 837 837 837 837 837 837 836 836 836 837 837 838 838 838 839 839 839 839 838 838 837 837 836 836 835 835 836 836 835 835 835 835 835 835 835 835 834 834 833 833 832 832 832 831 830 830 829 828 827 827 826 824 823 822 821 819 818
830 830 830 831 831 832 832 833 833 834 834 835 835 835 835 835 834 835 835 835 836 836 837 837 837 837 837 837 837 837 836 836 837 837 836 836 837 837 838 838 839 839 840 840 840 840 839 839 839 838 838 838 837 837 837 837 837 836 836 836 836 836 836 835 834 834 833 833 832 832 831 831 830 829 829 828 827 826 825 824 823 821 820 818 816
829 829 830 830 831 831 832 833 833 834 834 834 834 835 835 835 835 835 835 836 836 836 837 837 837 837 837 837 837 837 837 837 837 837 837 837 838 838 838 838 839 840 840 841 840 840 840 840 840 840 839 839 839 839 839 839 838 838 837 837 836 836 835 835 834 834 834 833 833 832 832 831 830 830 829 828 827 826 825 823 822 820 818 816 815
829 829 829 830 830 831 832 833 833 834 834 834 834 835 835 835 836 836 836 836 836 836 837 837 837 837 838 838 838 838 838 838 838 838 838 838 838 837 838 839 839 840 840 841 841 841 841 841 841 840 840 840 840 840 840 839 839 838 837 837 836 836 835 835 835 835 834 834 833 833 832 832 831 830 829 828 827 826 824 823 821 819 817 815 813
829 829 829 829 830 831 832 833 833 834 834 834 834 834 835 835 835 836 836 836 837 837 838 838 838 839 839 839 839 840 840 840 840 840 840 839 839 839 839 840 840 840 841 841 841 841 841 841 841 841 841 841 841 840 840 840 840 838 837 836 837 836 836 836 836 836 835 834 834 833 832 832 831 830 829 828 827 825 823 822 820 818 816 814 812
828 828 828 828 829 829 830 832 833 834 834 834 834 834 834 835 835 835 836 837 837 838 839 839 839 840 839 840 840 841 841 841 841 841 841 840 840 840 841 841 841 841 841 841 841 841 842 842 842 841 841 841 841 841 841 841 839 837 837 837 837 837 837 837 836 835 835 834 833 833 832 831 830 829 828 826 825 824 822 820 819 817 815 813 811
828 828 828 828 828 828 829 831 832 833 834 834 835 834 834 835 835 836 837 837 838 838 839 839 840 840 840 840 841 842 842 842 842 842 842 841 841 841 842 842 842 842 842 841 842 842 842 842 842 841 841 841 841 841 841 840 838 837 837 838 837 837 837 837 835 834 834 833 832 831 831 829 828 827 826 824 823 822 820 818 817 815 813 811 809
827 827 827 828 828 829 829 831 832 833 833 834 834 834 835 835 836 836 837 837 838 838 839 839 840 840 841 842 842 842 842 843 842 842 842 842 842 842 842 842 842 842 842 842 842 842 842 842 842 841 841 841 841 841 841 839 838 838 837 837 837 836 836 835 834 833 833 832 831 830 829 827 826 825 824 822 821 819 818 816 815 813 811 809 808
826 826 827 827 828 829 829 830 831 832 832 833 833 834 834 835 836 836 837 837 838 839 839 840 841 841 842 842 842 842 843 843 843 843 843 843 843 843 843 843 843 843 842 842 842 841 841 841 841 841 841 841 841 841 841 839 838 838 837 837 836 836 835 834 833 832 831 830 829 828 827 825 824 823 821 820 819 817 816 814 813 811 809 808 806
825 826 826 827 828 829 829 830 831 831 832 833 833 834 834 835 836 836 836 837 838 839 840 841 841 842 842 842 843 843 843 843 843 843 843 843 843 843 843 843 843 843 842 842 841 841 841 841 840 840 840 841 841 842 840 838 837 838 837 836 836 835 834 833 832 831 830 828 827 826 825 823 822 821 819 818 817 816 814 812 811 809 808 806 805
825 827 827 827 828 829 830 830 831 832 832 833 833 834 834 835 835 835 836 837 838 839 840 841 841 841 842 842 842 843 843 843 843 843 843 843 843 843 843 843 843 842 842 842 841 841 841 840 840 840 841 841 841 842 840 838 837 837 837 836 835 834 833 832 830 829 828 827 825 824 823 821 820 819 818 816 815 813 812 810 809 807 806 804 803